Time,TemperatureF,DewpointF,PressureIn,WindDirection,WindDirectionDegrees,WindSpeedMPH,WindSpeedGustMPH,Humidity,HourlyPrecipIn,Conditions,Clouds,dailyrainin,SoftwareType,DateUTC
2013-02-10 00:00:00,25.8,20.8,30.12,South,183,0.0,0.0,81,0.00,,---,0.00,VWS V13.01,2013-02-10 05:00:00,
2013-02-10 00:05:00,25.8,20.8,30.12,South,183,1.0,3.0,81,0.00,,---,0.00,VWS V13.01,2013-02-10 05:05:00,
2013-02-10 00:10:00,25.8,20.8,30.12,South,183,0.0,3.0,81,0.00,,---,0.00,VWS V13.01,2013-02-10 05:10:00,
2013-02-10 00:15:00,25.8,21.1,30.12,South,183,0.0,3.0,82,0.00,,---,0.00,VWS V13.01,2013-02-10 05:15:00,
2013-02-10 00:20:00,25.9,21.2,30.13,South,183,1.0,3.0,82,0.00,,---,0.00,VWS V13.01,2013-02-10 05:20:00,
2013-02-10 00:25:00,25.9,21.2,30.12,South,183,0.0,5.0,82,0.00,,---,0.00,VWS V13.01,2013-02-10 05:25:00,
2013-02-10 00:30:00,26.0,21.3,30.12,South,183,2.0,5.0,82,0.00,,---,0.00,VWS V13.01,2013-02-10 05:30:00,
2013-02-10 00:35:00,26.0,21.3,30.12,South,183,1.0,5.0,82,0.00,,---,0.00,VWS V13.01,2013-02-10 05:35:00,
2013-02-10 00:40:00,26.0,21.3,30.12,South,183,0.0,5.0,82,0.00,,---,0.00,VWS V13.01,2013-02-10 05:40:00,
2013-02-10 00:45:00,25.9,21.2,30.12,South,183,1.0,5.0,82,0.00,,---,0.00,VWS V13.01,2013-02-10 05:45:00,
2013-02-10 00:50:00,25.9,21.2,30.13,South,183,1.0,5.0,82,0.00,,---,0.00,VWS V13.01,2013-02-10 05:50:00,
2013-02-10 00:55:00,25.9,21.2,30.12,South,183,0.0,5.0,82,0.00,,---,0.00,VWS V13.01,2013-02-10 05:55:00,
2013-02-10 01:00:00,25.8,21.1,30.12,South,183,2.0,5.0,82,0.00,,---,0.00,VWS V13.01,2013-02-10 06:00:00,
2013-02-10 01:05:00,25.8,21.1,30.12,South,183,0.0,5.0,82,0.00,,---,0.00,VWS V13.01,2013-02-10 06:05:00,
2013-02-10 01:10:00,25.8,21.1,30.12,South,183,0.0,5.0,82,0.00,,---,0.00,VWS V13.01,2013-02-10 06:10:00,
2013-02-10 01:15:00,25.7,21.0,30.12,South,183,0.0,6.0,82,0.00,,---,0.00,VWS V13.01,2013-02-10 06:15:00,
2013-02-10 01:20:00,25.6,20.6,30.12,South,183,2.0,6.0,81,0.00,,---,0.00,VWS V13.01,2013-02-10 06:20:00,
2013-02-10 01:25:00,25.6,20.9,30.12,South,183,0.0,6.0,82,0.00,,---,0.00,VWS V13.01,2013-02-10 06:25:00,
2013-02-10 01:30:00,25.5,20.5,30.12,South,183,0.0,6.0,81,0.00,,---,0.00,VWS V13.01,2013-02-10 06:30:00,
2013-02-10 01:35:00,25.4,20.7,30.12,South,183,0.0,6.0,82,0.00,,---,0.00,VWS V13.01,2013-02-10 06:35:00,
2013-02-10 01:40:00,25.3,20.6,30.12,South,183,0.0,6.0,82,0.00,,---,0.00,VWS V13.01,2013-02-10 06:40:00,
2013-02-10 01:45:00,25.3,20.6,30.12,South,183,2.0,6.0,82,0.00,,---,0.00,VWS V13.01,2013-02-10 06:45:00,
2013-02-10 01:50:00,25.2,20.2,30.12,South,183,0.0,6.0,81,0.00,,---,0.00,VWS V13.01,2013-02-10 06:50:00,
2013-02-10 01:55:00,25.2,20.2,30.11,South,183,0.0,6.0,81,0.00,,---,0.00,VWS V13.01,2013-02-10 06:55:00,
2013-02-10 02:00:00,25.1,20.1,30.11,South,183,1.0,4.0,81,0.00,,---,0.00,VWS V13.01,2013-02-10 07:00:00,
2013-02-10 02:05:00,25.1,20.1,30.11,South,183,0.0,4.0,81,0.00,,---,0.00,VWS V13.01,2013-02-10 07:05:00,
2013-02-10 02:10:00,25.0,20.0,30.11,South,183,2.0,4.0,81,0.00,,---,0.00,VWS V13.01,2013-02-10 07:10:00,
2013-02-10 02:15:00,25.0,20.0,30.11,South,183,0.0,4.0,81,0.00,,---,0.00,VWS V13.01,2013-02-10 07:15:00,
2013-02-10 02:20:00,24.9,19.9,30.10,South,183,0.0,4.0,81,0.00,,---,0.00,VWS V13.01,2013-02-10 07:20:00,
2013-02-10 02:25:00,24.8,19.8,30.11,South,183,0.0,4.0,81,0.00,,---,0.00,VWS V13.01,2013-02-10 07:25:00,
2013-02-10 02:30:00,24.7,20.0,30.11,South,183,1.0,4.0,82,0.00,,---,0.00,VWS V13.01,2013-02-10 07:30:00,
2013-02-10 02:35:00,24.7,20.0,30.11,South,183,3.0,4.0,82,0.00,,---,0.00,VWS V13.01,2013-02-10 07:35:00,
2013-02-10 02:40:00,24.7,20.0,30.11,South,183,0.0,4.0,82,0.00,,---,0.00,VWS V13.01,2013-02-10 07:40:00,
2013-02-10 02:45:00,24.6,19.9,30.11,South,183,0.0,4.0,82,0.00,,---,0.00,VWS V13.01,2013-02-10 07:45:00,
2013-02-10 02:50:00,24.5,19.8,30.11,South,183,0.0,4.0,82,0.00,,---,0.00,VWS V13.01,2013-02-10 07:50:00,
2013-02-10 02:55:00,24.5,19.8,30.11,South,183,0.0,4.0,82,0.00,,---,0.00,VWS V13.01,2013-02-10 07:55:00,
2013-02-10 03:00:00,24.4,19.7,30.11,South,183,0.0,4.0,82,0.00,,---,0.00,VWS V13.01,2013-02-10 08:00:00,
2013-02-10 03:05:00,24.4,19.7,30.11,South,183,0.0,4.0,82,0.00,,---,0.00,VWS V13.01,2013-02-10 08:05:00,
2013-02-10 03:10:00,24.4,20.0,30.11,South,183,0.0,4.0,83,0.00,,---,0.00,VWS V13.01,2013-02-10 08:10:00,
2013-02-10 03:15:00,24.3,19.9,30.10,South,183,0.0,4.0,83,0.00,,---,0.00,VWS V13.01,2013-02-10 08:15:00,
2013-02-10 03:20:00,24.3,19.9,30.10,South,183,0.0,4.0,83,0.00,,---,0.00,VWS V13.01,2013-02-10 08:20:00,
2013-02-10 03:25:00,24.2,19.8,30.10,South,183,0.0,4.0,83,0.00,,---,0.00,VWS V13.01,2013-02-10 08:25:00,
2013-02-10 03:30:00,24.2,19.8,30.10,South,183,0.0,4.0,83,0.00,,---,0.00,VWS V13.01,2013-02-10 08:30:00,
2013-02-10 03:35:00,24.2,19.8,30.10,South,183,0.0,4.0,83,0.00,,---,0.00,VWS V13.01,2013-02-10 08:35:00,
2013-02-10 03:40:00,24.2,19.8,30.10,South,183,0.0,4.0,83,0.00,,---,0.00,VWS V13.01,2013-02-10 08:40:00,
2013-02-10 03:45:00,24.2,19.8,30.10,South,183,0.0,4.0,83,0.00,,---,0.00,VWS V13.01,2013-02-10 08:45:00,
2013-02-10 03:50:00,24.1,19.7,30.10,South,183,0.0,4.0,83,0.00,,---,0.00,VWS V13.01,2013-02-10 08:50:00,
2013-02-10 03:55:00,24.1,20.0,30.09,South,183,0.0,4.0,84,0.00,,---,0.00,VWS V13.01,2013-02-10 08:55:00,
2013-02-10 04:00:00,24.1,19.7,30.09,South,183,0.0,0.0,83,0.00,,---,0.00,VWS V13.01,2013-02-10 09:00:00,
2013-02-10 04:05:00,24.0,19.6,30.09,South,183,0.0,0.0,83,0.00,,---,0.00,VWS V13.01,2013-02-10 09:05:00,
2013-02-10 04:10:00,24.0,19.6,30.09,South,183,0.0,0.0,83,0.00,,---,0.00,VWS V13.01,2013-02-10 09:10:00,
2013-02-10 04:15:00,24.0,19.6,30.09,South,183,0.0,0.0,83,0.00,,---,0.00,VWS V13.01,2013-02-10 09:15:00,
2013-02-10 04:20:00,24.0,19.6,30.09,South,183,0.0,0.0,83,0.00,,---,0.00,VWS V13.01,2013-02-10 09:20:00,
2013-02-10 04:25:00,24.0,19.9,30.09,South,183,0.0,0.0,84,0.00,,---,0.00,VWS V13.01,2013-02-10 09:25:00,
2013-02-10 04:30:00,24.0,19.6,30.09,South,183,0.0,0.0,83,0.00,,---,0.00,VWS V13.01,2013-02-10 09:30:00,
2013-02-10 04:35:00,24.0,19.6,30.09,South,183,0.0,0.0,83,0.00,,---,0.00,VWS V13.01,2013-02-10 09:35:00,
2013-02-10 04:40:00,23.9,19.8,30.08,South,183,0.0,0.0,84,0.00,,---,0.00,VWS V13.01,2013-02-10 09:40:00,
2013-02-10 04:45:00,23.9,19.8,30.08,South,183,0.0,0.0,84,0.00,,---,0.00,VWS V13.01,2013-02-10 09:45:00,
2013-02-10 04:50:00,23.9,19.5,30.08,South,183,0.0,0.0,83,0.00,,---,0.00,VWS V13.01,2013-02-10 09:50:00,
2013-02-10 04:55:00,23.9,19.5,30.09,South,183,0.0,0.0,83,0.00,,---,0.00,VWS V13.01,2013-02-10 09:55:00,
2013-02-10 05:00:00,23.9,19.5,30.09,South,183,0.0,0.0,83,0.00,,---,0.00,VWS V13.01,2013-02-10 10:00:00,
2013-02-10 05:05:00,23.8,19.7,30.09,South,183,0.0,0.0,84,0.00,,---,0.00,VWS V13.01,2013-02-10 10:05:00,
2013-02-10 05:10:00,23.8,19.7,30.09,South,183,0.0,0.0,84,0.00,,---,0.00,VWS V13.01,2013-02-10 10:10:00,
2013-02-10 05:15:00,23.8,19.7,30.09,South,183,0.0,0.0,84,0.00,,---,0.00,VWS V13.01,2013-02-10 10:15:00,
2013-02-10 05:20:00,23.8,19.7,30.09,South,183,0.0,0.0,84,0.00,,---,0.00,VWS V13.01,2013-02-10 10:20:00,
2013-02-10 05:25:00,23.8,19.7,30.09,South,183,0.0,0.0,84,0.00,,---,0.00,VWS V13.01,2013-02-10 10:25:00,
2013-02-10 05:30:00,23.8,19.7,30.08,South,183,0.0,0.0,84,0.00,,---,0.00,VWS V13.01,2013-02-10 10:30:00,
2013-02-10 05:35:00,23.7,19.6,30.08,South,183,0.0,0.0,84,0.00,,---,0.00,VWS V13.01,2013-02-10 10:35:00,
2013-02-10 05:40:00,23.8,19.7,30.08,South,183,0.0,0.0,84,0.00,,---,0.00,VWS V13.01,2013-02-10 10:40:00,
2013-02-10 05:45:00,23.7,19.6,30.08,South,183,0.0,0.0,84,0.00,,---,0.00,VWS V13.01,2013-02-10 10:45:00,
2013-02-10 05:50:00,23.7,19.6,30.08,South,183,0.0,0.0,84,0.00,,---,0.00,VWS V13.01,2013-02-10 10:50:00,
2013-02-10 05:55:00,23.7,19.6,30.08,South,183,0.0,0.0,84,0.00,,---,0.00,VWS V13.01,2013-02-10 10:55:00,
2013-02-10 06:00:00,23.7,19.9,30.08,South,183,0.0,0.0,85,0.00,,---,0.00,VWS V13.01,2013-02-10 11:00:00,
2013-02-10 06:05:00,23.6,19.8,30.08,South,183,0.0,0.0,85,0.00,,---,0.00,VWS V13.01,2013-02-10 11:05:00,
2013-02-10 06:10:00,23.6,19.8,30.08,South,183,0.0,0.0,85,0.00,,---,0.00,VWS V13.01,2013-02-10 11:10:00,
2013-02-10 06:15:00,23.6,19.8,30.08,South,183,0.0,1.0,85,0.00,,---,0.00,VWS V13.01,2013-02-10 11:15:00,
2013-02-10 06:20:00,23.6,19.8,30.07,South,183,0.0,2.0,85,0.00,,---,0.00,VWS V13.01,2013-02-10 11:20:00,
2013-02-10 06:25:00,23.6,19.8,30.07,South,183,0.0,2.0,85,0.00,,---,0.00,VWS V13.01,2013-02-10 11:25:00,
2013-02-10 06:30:00,23.8,20.2,30.07,South,183,1.0,2.0,86,0.00,,---,0.00,VWS V13.01,2013-02-10 11:30:00,
2013-02-10 06:35:00,24.0,20.4,30.07,South,183,1.0,5.0,86,0.00,,---,0.00,VWS V13.01,2013-02-10 11:35:00,
2013-02-10 06:40:00,24.2,20.4,30.07,South,183,0.0,5.0,85,0.00,,---,0.00,VWS V13.01,2013-02-10 11:40:00,
2013-02-10 06:45:00,24.2,20.4,30.07,South,183,0.0,5.0,85,0.00,,---,0.00,VWS V13.01,2013-02-10 11:45:00,
2013-02-10 06:50:00,24.3,20.7,30.06,South,183,0.0,5.0,86,0.00,,---,0.00,VWS V13.01,2013-02-10 11:50:00,
2013-02-10 06:55:00,24.3,20.7,30.07,South,183,1.0,5.0,86,0.00,,---,0.00,VWS V13.01,2013-02-10 11:55:00,
2013-02-10 07:00:00,24.4,20.5,30.07,South,183,0.0,5.0,85,0.00,,---,0.00,VWS V13.01,2013-02-10 12:00:00,
2013-02-10 07:05:00,24.4,20.5,30.06,South,183,0.0,5.0,85,0.00,,---,0.00,VWS V13.01,2013-02-10 12:05:00,
2013-02-10 07:10:00,24.4,20.5,30.06,South,183,0.0,5.0,85,0.00,,---,0.00,VWS V13.01,2013-02-10 12:10:00,
2013-02-10 07:15:00,24.3,20.5,30.06,South,183,0.0,5.0,85,0.00,,---,0.00,VWS V13.01,2013-02-10 12:15:00,
2013-02-10 07:20:00,24.2,20.4,30.06,South,183,0.0,5.0,85,0.00,,---,0.00,VWS V13.01,2013-02-10 12:20:00,
2013-02-10 07:25:00,24.2,20.6,30.07,South,183,0.0,5.0,86,0.00,,---,0.00,VWS V13.01,2013-02-10 12:25:00,
2013-02-10 07:30:00,24.2,20.6,30.06,South,183,0.0,5.0,86,0.00,,---,0.00,VWS V13.01,2013-02-10 12:30:00,
2013-02-10 07:35:00,24.2,20.6,30.06,South,183,0.0,5.0,86,0.00,,---,0.00,VWS V13.01,2013-02-10 12:35:00,
2013-02-10 07:40:00,24.2,20.6,30.06,South,183,0.0,5.0,86,0.00,,---,0.00,VWS V13.01,2013-02-10 12:40:00,
2013-02-10 07:45:00,24.2,20.6,30.06,South,183,0.0,5.0,86,0.00,,---,0.00,VWS V13.01,2013-02-10 12:45:00,
2013-02-10 07:50:00,24.2,20.6,30.06,South,183,0.0,5.0,86,0.00,,---,0.00,VWS V13.01,2013-02-10 12:50:00,
2013-02-10 07:55:00,24.2,20.6,30.06,South,183,0.0,5.0,86,0.00,,---,0.00,VWS V13.01,2013-02-10 12:55:00,
2013-02-10 08:00:00,24.3,20.7,30.05,South,183,0.0,0.0,86,0.00,,---,0.00,VWS V13.01,2013-02-10 13:00:00,
2013-02-10 08:05:00,24.4,21.1,30.05,South,183,0.0,0.0,87,0.00,,---,0.00,VWS V13.01,2013-02-10 13:05:00,
2013-02-10 08:10:00,24.5,20.9,30.05,South,183,0.0,0.0,86,0.00,,---,0.00,VWS V13.01,2013-02-10 13:10:00,
2013-02-10 08:15:00,24.5,20.9,30.05,South,183,0.0,0.0,86,0.00,,---,0.00,VWS V13.01,2013-02-10 13:15:00,
2013-02-10 08:20:00,24.5,20.9,30.05,South,183,1.0,1.0,86,0.00,,---,0.00,VWS V13.01,2013-02-10 13:20:00,
2013-02-10 08:25:00,24.4,20.8,30.05,South,183,0.0,1.0,86,0.00,,---,0.00,VWS V13.01,2013-02-10 13:25:00,
2013-02-10 08:30:00,24.5,20.9,30.06,South,183,0.0,1.0,86,0.00,,---,0.00,VWS V13.01,2013-02-10 13:30:00,
2013-02-10 08:35:00,24.5,21.2,30.06,South,183,0.0,1.0,87,0.00,,---,0.00,VWS V13.01,2013-02-10 13:35:00,
2013-02-10 08:40:00,24.6,21.3,30.06,South,183,0.0,1.0,87,0.00,,---,0.00,VWS V13.01,2013-02-10 13:40:00,
2013-02-10 08:45:00,24.7,21.4,30.05,South,183,0.0,1.0,87,0.00,,---,0.00,VWS V13.01,2013-02-10 13:45:00,
2013-02-10 08:50:00,24.8,21.5,30.04,South,183,0.0,1.0,87,0.00,,---,0.00,VWS V13.01,2013-02-10 13:50:00,
2013-02-10 08:55:00,25.0,21.7,30.04,South,183,0.0,1.0,87,0.00,,---,0.00,VWS V13.01,2013-02-10 13:55:00,
2013-02-10 09:00:00,25.2,22.1,30.04,South,183,0.0,1.0,88,0.00,,---,0.00,VWS V13.01,2013-02-10 14:00:00,
2013-02-10 09:05:00,25.3,22.2,30.04,South,183,0.0,2.0,88,0.00,,---,0.00,VWS V13.01,2013-02-10 14:05:00,
2013-02-10 09:10:00,25.4,22.4,30.04,South,183,0.0,2.0,88,0.00,,---,0.00,VWS V13.01,2013-02-10 14:10:00,
2013-02-10 09:15:00,25.5,22.5,30.04,South,183,0.0,2.0,88,0.00,,---,0.00,VWS V13.01,2013-02-10 14:15:00,
2013-02-10 09:20:00,25.6,22.5,30.03,South,183,0.0,2.0,88,0.00,,---,0.00,VWS V13.01,2013-02-10 14:20:00,
2013-02-10 09:25:00,25.6,22.5,30.03,South,183,0.0,2.0,88,0.00,,---,0.00,VWS V13.01,2013-02-10 14:25:00,
2013-02-10 09:30:00,25.7,22.6,30.03,South,183,0.0,2.0,88,0.00,,---,0.00,VWS V13.01,2013-02-10 14:30:00,
2013-02-10 09:35:00,25.8,22.7,30.02,South,183,0.0,2.0,88,0.00,,---,0.00,VWS V13.01,2013-02-10 14:35:00,
2013-02-10 09:40:00,25.8,22.5,30.01,South,183,0.0,2.0,87,0.00,,---,0.00,VWS V13.01,2013-02-10 14:40:00,
2013-02-10 09:45:00,25.9,22.6,30.01,South,183,1.0,2.0,87,0.00,,---,0.00,VWS V13.01,2013-02-10 14:45:00,
2013-02-10 09:50:00,26.0,22.7,30.01,SSE,155,0.0,5.0,87,0.00,,---,0.00,VWS V13.01,2013-02-10 14:50:00,
2013-02-10 09:55:00,26.1,22.8,30.00,SSE,155,0.0,5.0,87,0.00,,---,0.00,VWS V13.01,2013-02-10 14:55:00,
2013-02-10 10:00:00,26.2,22.9,30.00,SSE,157,0.0,4.0,87,0.00,,---,0.00,VWS V13.01,2013-02-10 15:00:00,
2013-02-10 10:05:00,26.3,23.0,30.00,SSE,157,0.0,4.0,87,0.00,,---,0.00,VWS V13.01,2013-02-10 15:05:00,
2013-02-10 10:10:00,26.5,23.2,29.99,SSE,157,0.0,4.0,87,0.00,,---,0.00,VWS V13.01,2013-02-10 15:10:00,
2013-02-10 10:15:00,26.6,23.3,29.99,SSE,157,0.0,4.0,87,0.00,,---,0.00,VWS V13.01,2013-02-10 15:15:00,
2013-02-10 10:20:00,26.8,23.5,29.98,SSE,157,0.0,4.0,87,0.00,,---,0.00,VWS V13.01,2013-02-10 15:20:00,
2013-02-10 10:25:00,26.9,23.6,29.97,SSE,157,0.0,4.0,87,0.00,,---,0.00,VWS V13.01,2013-02-10 15:25:00,
2013-02-10 10:30:00,27.0,23.6,29.96,SSE,155,0.0,4.0,87,0.00,,---,0.00,VWS V13.01,2013-02-10 15:30:00,
2013-02-10 10:35:00,27.1,23.8,29.96,SSE,155,0.0,4.0,87,0.00,,---,0.00,VWS V13.01,2013-02-10 15:35:00,
2013-02-10 10:40:00,27.2,23.9,29.96,SSE,155,0.0,4.0,87,0.00,,---,0.00,VWS V13.01,2013-02-10 15:40:00,
2013-02-10 10:45:00,27.4,24.0,29.95,SSE,155,0.0,4.0,87,0.00,,---,0.00,VWS V13.01,2013-02-10 15:45:00,
2013-02-10 10:50:00,27.5,24.1,29.95,SSE,155,0.0,4.0,87,0.00,,---,0.00,VWS V13.01,2013-02-10 15:50:00,
2013-02-10 10:55:00,27.7,24.3,29.95,SSE,155,0.0,4.0,87,0.00,,---,0.00,VWS V13.01,2013-02-10 15:55:00,
2013-02-10 11:00:00,27.9,24.5,29.94,SSE,155,0.0,4.0,87,0.00,,---,0.00,VWS V13.01,2013-02-10 16:00:00,
2013-02-10 11:05:00,28.0,24.6,29.94,SSE,155,0.0,4.0,87,0.00,,---,0.00,VWS V13.01,2013-02-10 16:05:00,
2013-02-10 11:10:00,28.2,24.6,29.94,SSE,153,0.0,4.0,86,0.00,,---,0.00,VWS V13.01,2013-02-10 16:10:00,
2013-02-10 11:15:00,28.4,24.8,29.94,SSE,153,0.0,4.0,86,0.00,,---,0.00,VWS V13.01,2013-02-10 16:15:00,
2013-02-10 11:20:00,28.7,25.0,29.94,SSE,153,0.0,4.0,86,0.00,,---,0.00,VWS V13.01,2013-02-10 16:20:00,
2013-02-10 11:25:00,28.8,25.1,29.94,SSE,153,2.0,4.0,86,0.00,,---,0.00,VWS V13.01,2013-02-10 16:25:00,
2013-02-10 11:30:00,29.0,25.4,29.94,SSE,153,0.0,4.0,86,0.00,,---,0.00,VWS V13.01,2013-02-10 16:30:00,
2013-02-10 11:35:00,29.2,25.5,29.94,SSE,153,0.0,4.0,86,0.00,,---,0.00,VWS V13.01,2013-02-10 16:35:00,
2013-02-10 11:40:00,29.4,25.7,29.94,SSE,153,1.0,4.0,86,0.00,,---,0.00,VWS V13.01,2013-02-10 16:40:00,
2013-02-10 11:45:00,29.6,25.9,29.94,SSE,153,0.0,4.0,86,0.00,,---,0.00,VWS V13.01,2013-02-10 16:45:00,
2013-02-10 11:50:00,29.9,26.2,29.94,SSE,153,3.0,4.0,86,0.00,,---,0.00,VWS V13.01,2013-02-10 16:50:00,
2013-02-10 11:55:00,30.2,26.5,29.93,ESE,123,1.0,6.0,86,0.00,,---,0.00,VWS V13.01,2013-02-10 16:55:00,
2013-02-10 12:00:00,30.6,26.9,29.94,ESE,123,1.0,1.0,86,0.00,,---,0.00,VWS V13.01,2013-02-10 17:00:00,
2013-02-10 12:05:00,30.9,26.9,29.95,SE,126,0.0,4.0,85,0.00,,---,0.00,VWS V13.01,2013-02-10 17:05:00,
2013-02-10 12:10:00,31.1,27.1,29.96,SE,126,1.0,4.0,85,0.00,,---,0.00,VWS V13.01,2013-02-10 17:10:00,
2013-02-10 12:15:00,31.4,27.1,29.95,SE,124,1.0,4.0,84,0.00,,---,0.00,VWS V13.01,2013-02-10 17:15:00,
2013-02-10 12:20:00,31.6,27.3,29.95,SE,125,2.0,4.0,84,0.00,,---,0.00,VWS V13.01,2013-02-10 17:20:00,
2013-02-10 12:25:00,31.8,27.5,29.95,SE,124,0.0,4.0,84,0.00,,---,0.00,VWS V13.01,2013-02-10 17:25:00,
2013-02-10 12:30:00,32.0,27.4,29.95,SE,125,0.0,4.0,83,0.00,,---,0.00,VWS V13.01,2013-02-10 17:30:00,
2013-02-10 12:35:00,32.1,27.5,29.95,SE,146,1.0,9.0,83,0.00,,---,0.00,VWS V13.01,2013-02-10 17:35:00,
2013-02-10 12:40:00,32.1,27.5,29.94,SE,146,0.0,9.0,83,0.00,,---,0.00,VWS V13.01,2013-02-10 17:40:00,
2013-02-10 12:45:00,32.2,27.6,29.94,SE,146,0.0,9.0,83,0.00,,---,0.00,VWS V13.01,2013-02-10 17:45:00,
2013-02-10 12:50:00,32.2,27.6,29.94,SE,146,1.0,9.0,83,0.00,,---,0.00,VWS V13.01,2013-02-10 17:50:00,
2013-02-10 12:55:00,32.2,27.6,29.93,SE,146,1.0,9.0,83,0.00,,---,0.00,VWS V13.01,2013-02-10 17:55:00,
2013-02-10 13:00:00,32.3,27.7,29.92,SE,146,0.0,9.0,83,0.00,,---,0.00,VWS V13.01,2013-02-10 18:00:00,
2013-02-10 13:05:00,32.5,27.9,29.92,SE,146,0.0,9.0,83,0.00,,---,0.00,VWS V13.01,2013-02-10 18:05:00,
2013-02-10 13:10:00,32.6,28.0,29.92,SE,146,0.0,9.0,83,0.00,,---,0.00,VWS V13.01,2013-02-10 18:10:00,
2013-02-10 13:15:00,32.6,27.7,29.91,SE,146,1.0,9.0,82,0.00,,---,0.00,VWS V13.01,2013-02-10 18:15:00,
2013-02-10 13:20:00,32.8,27.9,29.91,SE,146,0.0,9.0,82,0.00,,---,0.00,VWS V13.01,2013-02-10 18:20:00,
2013-02-10 13:25:00,32.9,27.7,29.90,SE,146,0.0,9.0,81,0.00,,---,0.00,VWS V13.01,2013-02-10 18:25:00,
2013-02-10 13:30:00,33.0,27.8,29.89,SE,146,1.0,9.0,81,0.00,,---,0.00,VWS V13.01,2013-02-10 18:30:00,
2013-02-10 13:35:00,33.0,27.5,29.89,SE,146,0.0,9.0,80,0.00,,---,0.00,VWS V13.01,2013-02-10 18:35:00,
2013-02-10 13:40:00,33.1,27.6,29.89,SE,146,0.0,9.0,80,0.00,,---,0.00,VWS V13.01,2013-02-10 18:40:00,
2013-02-10 13:45:00,33.0,27.8,29.88,SE,126,4.0,9.0,81,0.00,,---,0.00,VWS V13.01,2013-02-10 18:45:00,
2013-02-10 13:50:00,32.8,27.3,29.88,ESE,123,1.0,9.0,80,0.00,,---,0.00,VWS V13.01,2013-02-10 18:50:00,
2013-02-10 13:55:00,32.7,27.5,29.88,ESE,123,1.0,9.0,81,0.00,,---,0.00,VWS V13.01,2013-02-10 18:55:00,
2013-02-10 14:00:00,32.5,27.3,29.87,ESE,119,1.0,5.0,81,0.00,,---,0.00,VWS V13.01,2013-02-10 19:00:00,
2013-02-10 14:05:00,32.4,27.2,29.87,ESE,120,0.0,5.0,81,0.00,,---,0.00,VWS V13.01,2013-02-10 19:05:00,
2013-02-10 14:10:00,32.3,26.8,29.87,ESE,121,2.0,5.0,80,0.00,,---,0.00,VWS V13.01,2013-02-10 19:10:00,
2013-02-10 14:15:00,32.3,27.1,29.86,ESE,121,0.0,5.0,81,0.00,,---,0.00,VWS V13.01,2013-02-10 19:15:00,
2013-02-10 14:20:00,32.3,27.1,29.86,ESE,121,0.0,5.0,81,0.00,,---,0.00,VWS V13.01,2013-02-10 19:20:00,
2013-02-10 14:25:00,32.3,27.1,29.85,ESE,121,0.0,5.0,81,0.00,,---,0.00,VWS V13.01,2013-02-10 19:25:00,
2013-02-10 14:30:00,32.2,27.0,29.85,ESE,121,1.0,5.0,81,0.00,,---,0.00,VWS V13.01,2013-02-10 19:30:00,
2013-02-10 14:35:00,32.1,27.2,29.84,ESE,121,2.0,5.0,82,0.00,,---,0.00,VWS V13.01,2013-02-10 19:35:00,
2013-02-10 14:40:00,32.1,26.9,29.84,ESE,122,1.0,5.0,81,0.00,,---,0.00,VWS V13.01,2013-02-10 19:40:00,
2013-02-10 14:45:00,32.0,26.8,29.83,SE,126,0.0,5.0,81,0.00,,---,0.00,VWS V13.01,2013-02-10 19:45:00,
2013-02-10 14:50:00,32.0,27.1,29.83,ESE,117,1.0,5.0,82,0.00,,---,0.00,VWS V13.01,2013-02-10 19:50:00,
2013-02-10 14:55:00,32.0,27.1,29.82,ESE,117,0.0,5.0,82,0.00,,---,0.00,VWS V13.01,2013-02-10 19:55:00,
2013-02-10 15:00:00,31.9,27.0,29.81,ESE,116,0.0,5.0,82,0.00,,---,0.00,VWS V13.01,2013-02-10 20:00:00,
2013-02-10 15:05:00,31.9,27.0,29.81,ESE,112,1.0,5.0,82,0.00,,---,0.00,VWS V13.01,2013-02-10 20:05:00,
2013-02-10 15:10:00,31.9,27.0,29.80,ESE,107,3.0,5.0,82,0.00,,---,0.00,VWS V13.01,2013-02-10 20:10:00,
2013-02-10 15:15:00,31.9,27.3,29.79,ESE,106,1.0,5.0,83,0.00,,---,0.00,VWS V13.01,2013-02-10 20:15:00,
2013-02-10 15:20:00,31.8,27.2,29.78,ESE,114,0.0,5.0,83,0.00,,---,0.00,VWS V13.01,2013-02-10 20:20:00,
2013-02-10 15:25:00,31.8,27.2,29.78,ESE,116,4.0,5.0,83,0.00,,---,0.00,VWS V13.01,2013-02-10 20:25:00,
2013-02-10 15:30:00,31.7,27.1,29.78,ESE,109,3.0,5.0,83,0.00,,---,0.00,VWS V13.01,2013-02-10 20:30:00,
2013-02-10 15:35:00,31.7,26.8,29.78,ESE,108,1.0,5.0,82,0.00,,---,0.00,VWS V13.01,2013-02-10 20:35:00,
2013-02-10 15:40:00,31.7,26.8,29.78,East,101,0.0,6.0,82,0.00,,---,0.00,VWS V13.01,2013-02-10 20:40:00,
2013-02-10 15:45:00,31.7,26.8,29.77,East,90,1.0,8.0,82,0.00,,---,0.00,VWS V13.01,2013-02-10 20:45:00,
2013-02-10 15:50:00,31.7,26.8,29.76,East,92,1.0,8.0,82,0.00,,---,0.00,VWS V13.01,2013-02-10 20:50:00,
2013-02-10 15:55:00,31.7,26.8,29.76,East,91,0.0,8.0,82,0.00,,---,0.00,VWS V13.01,2013-02-10 20:55:00,
2013-02-10 16:00:00,31.7,26.8,29.76,East,90,0.0,3.0,82,0.00,,---,0.00,VWS V13.01,2013-02-10 21:00:00,
2013-02-10 16:05:00,31.7,26.5,29.76,East,91,1.0,3.0,81,0.00,,---,0.00,VWS V13.01,2013-02-10 21:05:00,
2013-02-10 16:10:00,31.7,26.5,29.74,East,94,1.0,5.0,81,0.00,,---,0.00,VWS V13.01,2013-02-10 21:10:00,
2013-02-10 16:15:00,31.7,26.2,29.74,East,95,1.0,5.0,80,0.00,,---,0.00,VWS V13.01,2013-02-10 21:15:00,
2013-02-10 16:20:00,31.7,26.2,29.73,East,94,0.0,5.0,80,0.00,,---,0.00,VWS V13.01,2013-02-10 21:20:00,
2013-02-10 16:25:00,31.7,26.5,29.72,East,94,1.0,5.0,81,0.01,,---,0.01,VWS V13.01,2013-02-10 21:25:00,
2013-02-10 16:30:00,31.7,26.5,29.72,East,98,2.0,5.0,81,0.01,,---,0.01,VWS V13.01,2013-02-10 21:30:00,
2013-02-10 16:35:00,31.7,26.5,29.72,East,92,0.0,5.0,81,0.01,,---,0.01,VWS V13.01,2013-02-10 21:35:00,
2013-02-10 16:40:00,31.7,26.8,29.71,East,95,0.0,5.0,82,0.01,,---,0.01,VWS V13.01,2013-02-10 21:40:00,
2013-02-10 16:45:00,31.7,26.8,29.71,East,98,1.0,5.0,82,0.01,,---,0.01,VWS V13.01,2013-02-10 21:45:00,
2013-02-10 16:50:00,31.6,26.1,29.70,ESE,115,5.0,10.0,80,0.01,,---,0.01,VWS V13.01,2013-02-10 21:50:00,
2013-02-10 16:55:00,31.6,26.1,29.70,East,88,0.0,10.0,80,0.01,,---,0.01,VWS V13.01,2013-02-10 21:55:00,
2013-02-10 17:00:00,31.6,26.1,29.69,East,93,1.0,10.0,80,0.01,,---,0.01,VWS V13.01,2013-02-10 22:00:00,
2013-02-10 17:05:00,31.6,26.1,29.69,ESE,103,2.0,10.0,80,0.01,,---,0.01,VWS V13.01,2013-02-10 22:05:00,
2013-02-10 17:10:00,31.5,26.0,29.68,East,101,2.0,10.0,80,0.01,,---,0.01,VWS V13.01,2013-02-10 22:10:00,
2013-02-10 17:15:00,31.5,26.0,29.68,East,100,2.0,10.0,80,0.01,,---,0.01,VWS V13.01,2013-02-10 22:15:00,
2013-02-10 17:20:00,31.4,26.0,29.67,ESE,119,2.0,10.0,80,0.01,,---,0.01,VWS V13.01,2013-02-10 22:20:00,
2013-02-10 17:25:00,31.4,26.0,29.67,East,80,1.0,10.0,80,0.01,,---,0.01,VWS V13.01,2013-02-10 22:25:00,
2013-02-10 17:30:00,31.4,26.2,29.66,East,80,0.0,10.0,81,0.01,,---,0.01,VWS V13.01,2013-02-10 22:30:00,
2013-02-10 17:35:00,31.3,26.5,29.66,ENE,76,1.0,10.0,82,0.01,,---,0.01,VWS V13.01,2013-02-10 22:35:00,
2013-02-10 17:40:00,31.3,26.5,29.66,East,82,4.0,10.0,82,0.01,,---,0.01,VWS V13.01,2013-02-10 22:40:00,
2013-02-10 17:45:00,31.3,26.8,29.65,East,82,0.0,10.0,83,0.01,,---,0.01,VWS V13.01,2013-02-10 22:45:00,
2013-02-10 17:50:00,31.2,26.9,29.64,ESE,109,1.0,10.0,84,0.01,,---,0.01,VWS V13.01,2013-02-10 22:50:00,
2013-02-10 17:55:00,31.2,26.9,29.64,ESE,109,0.0,10.0,84,0.01,,---,0.01,VWS V13.01,2013-02-10 22:55:00,
2013-02-10 18:00:00,31.2,26.9,29.62,ESE,111,1.0,7.0,84,0.01,,---,0.01,VWS V13.01,2013-02-10 23:00:00,
2013-02-10 18:05:00,31.2,27.2,29.62,ESE,110,3.0,8.0,85,0.01,,---,0.01,VWS V13.01,2013-02-10 23:05:00,
2013-02-10 18:11:00,31.2,27.5,29.62,North,360,0.0,8.0,86,0.01,,---,0.01,VWS V13.01,2013-02-10 23:11:00,
2013-02-10 18:15:00,31.2,27.8,29.61,North,360,0.0,8.0,87,0.01,,---,0.01,VWS V13.01,2013-02-10 23:15:00,
2013-02-10 18:20:00,31.2,27.8,29.61,ESE,109,1.0,8.0,87,0.01,,---,0.01,VWS V13.01,2013-02-10 23:20:00,
2013-02-10 18:26:00,31.3,28.2,29.60,ESE,109,0.0,8.0,88,0.01,,---,0.01,VWS V13.01,2013-02-10 23:26:00,
2013-02-10 18:31:00,31.4,28.3,29.60,East,93,3.0,8.0,88,0.01,,---,0.01,VWS V13.01,2013-02-10 23:31:00,
2013-02-10 18:36:00,31.5,28.4,29.59,North,360,3.0,9.0,88,0.01,,---,0.01,VWS V13.01,2013-02-10 23:36:00,
2013-02-10 18:41:00,31.5,28.4,29.58,SSE,155,2.0,9.0,88,0.01,,---,0.01,VWS V13.01,2013-02-10 23:41:00,
2013-02-10 18:46:00,31.5,28.4,29.58,ESE,121,2.0,10.0,88,0.01,,---,0.01,VWS V13.01,2013-02-10 23:46:00,
2013-02-10 18:51:00,31.6,28.7,29.58,SSW,213,0.0,10.0,89,0.01,,---,0.01,VWS V13.01,2013-02-10 23:51:00,
2013-02-10 18:56:00,31.6,28.7,29.58,SW,219,1.0,10.0,89,0.01,,---,0.01,VWS V13.01,2013-02-10 23:56:00,
2013-02-10 19:01:00,31.7,28.8,29.60,SW,216,0.0,10.0,89,0.01,,---,0.01,VWS V13.01,2013-02-11 00:01:00,
2013-02-10 19:06:00,31.7,28.8,29.59,SSW,209,0.0,10.0,89,0.01,,---,0.01,VWS V13.01,2013-02-11 00:06:00,
2013-02-10 19:11:00,31.8,28.9,29.58,South,187,1.0,10.0,89,0.01,,---,0.01,VWS V13.01,2013-02-11 00:11:00,
2013-02-10 19:16:00,31.9,29.3,29.56,North,360,0.0,10.0,90,0.01,,---,0.01,VWS V13.01,2013-02-11 00:16:00,
2013-02-10 19:21:00,32.1,29.5,29.58,ESE,104,1.0,10.0,90,0.01,,---,0.01,VWS V13.01,2013-02-11 00:21:00,
2013-02-10 19:26:00,32.2,29.6,29.57,ESE,107,3.0,10.0,90,0.01,,---,0.01,VWS V13.01,2013-02-11 00:26:00,
2013-02-10 19:31:00,32.3,29.7,29.57,SSW,194,4.0,10.0,90,0.01,,---,0.01,VWS V13.01,2013-02-11 00:31:00,
2013-02-10 19:36:00,32.4,30.1,29.56,SSW,194,1.0,10.0,91,0.01,,---,0.01,VWS V13.01,2013-02-11 00:36:00,
2013-02-10 19:41:00,32.5,30.2,29.56,ESE,114,1.0,10.0,91,0.01,,---,0.01,VWS V13.01,2013-02-11 00:41:00,
2013-02-10 19:46:00,32.6,30.3,29.56,East,101,0.0,10.0,91,0.01,,---,0.01,VWS V13.01,2013-02-11 00:46:00,
2013-02-10 19:51:00,32.7,30.4,29.56,ESE,102,1.0,10.0,91,0.01,,---,0.01,VWS V13.01,2013-02-11 00:51:00,
2013-02-10 19:56:00,32.8,30.5,29.55,ESE,106,0.0,10.0,91,0.01,,---,0.01,VWS V13.01,2013-02-11 00:56:00,
2013-02-10 20:01:00,32.8,30.5,29.55,SE,128,4.0,4.0,91,0.00,,---,0.01,VWS V13.01,2013-02-11 01:01:00,
2013-02-10 20:06:00,32.8,30.5,29.55,SSE,150,1.0,5.0,91,0.00,,---,0.01,VWS V13.01,2013-02-11 01:06:00,
2013-02-10 20:11:00,32.8,30.5,29.54,SSE,157,2.0,5.0,91,0.00,,---,0.01,VWS V13.01,2013-02-11 01:11:00,
2013-02-10 20:16:00,32.8,30.5,29.54,SSE,153,0.0,5.0,91,0.00,,---,0.01,VWS V13.01,2013-02-11 01:16:00,
2013-02-10 20:21:00,32.8,30.5,29.53,SE,141,1.0,6.0,91,0.00,,---,0.01,VWS V13.01,2013-02-11 01:21:00,
2013-02-10 20:26:00,32.7,30.4,29.53,SE,138,2.0,6.0,91,0.00,,---,0.01,VWS V13.01,2013-02-11 01:26:00,
2013-02-10 20:31:00,32.7,30.4,29.53,South,190,1.0,6.0,91,0.00,,---,0.01,VWS V13.01,2013-02-11 01:31:00,
2013-02-10 20:36:00,32.7,30.4,29.52,ESE,123,3.0,6.0,91,0.00,,---,0.01,VWS V13.01,2013-02-11 01:36:00,
2013-02-10 20:41:00,32.7,30.6,29.52,SE,136,0.0,6.0,92,0.00,,---,0.01,VWS V13.01,2013-02-11 01:41:00,
2013-02-10 20:46:00,32.6,30.5,29.52,SE,140,2.0,6.0,92,0.00,,---,0.01,VWS V13.01,2013-02-11 01:46:00,
2013-02-10 20:51:00,32.6,30.5,29.51,SE,145,0.0,6.0,92,0.00,,---,0.01,VWS V13.01,2013-02-11 01:51:00,
2013-02-10 20:56:00,32.6,30.5,29.51,SE,143,0.0,6.0,92,0.00,,---,0.01,VWS V13.01,2013-02-11 01:56:00,
2013-02-10 21:01:00,32.6,30.5,29.51,ESE,121,0.0,6.0,92,0.00,,---,0.01,VWS V13.01,2013-02-11 02:01:00,
2013-02-10 21:06:00,32.6,30.5,29.51,ESE,121,3.0,6.0,92,0.00,,---,0.01,VWS V13.01,2013-02-11 02:06:00,
2013-02-10 21:11:00,32.6,30.5,29.51,SE,142,5.0,6.0,92,0.00,,---,0.01,VWS V13.01,2013-02-11 02:11:00,
2013-02-10 21:16:00,32.7,30.6,29.50,SSE,159,0.0,6.0,92,0.00,,---,0.01,VWS V13.01,2013-02-11 02:16:00,
2013-02-10 21:21:00,32.7,30.6,29.50,East,90,1.0,6.0,92,0.00,,---,0.01,VWS V13.01,2013-02-11 02:21:00,
2013-02-10 21:26:00,32.7,30.6,29.50,SE,130,5.0,6.0,92,0.00,,---,0.01,VWS V13.01,2013-02-11 02:26:00,
2013-02-10 21:31:00,32.8,30.7,29.50,North,360,2.0,6.0,92,0.00,,---,0.01,VWS V13.01,2013-02-11 02:31:00,
2013-02-10 21:36:00,32.8,30.7,29.50,WSW,240,2.0,6.0,92,0.00,,---,0.01,VWS V13.01,2013-02-11 02:36:00,
2013-02-10 21:41:00,32.8,30.5,29.49,South,184,3.0,7.0,91,0.00,,---,0.01,VWS V13.01,2013-02-11 02:41:00,
2013-02-10 21:46:00,32.9,30.6,29.50,SSW,202,3.0,7.0,91,0.00,,---,0.01,VWS V13.01,2013-02-11 02:46:00,
2013-02-10 21:51:00,32.9,30.6,29.50,SE,140,0.0,7.0,91,0.00,,---,0.01,VWS V13.01,2013-02-11 02:51:00,
2013-02-10 21:56:00,32.8,30.5,29.49,East,92,4.0,7.0,91,0.00,,---,0.01,VWS V13.01,2013-02-11 02:56:00,
2013-02-10 22:01:00,32.8,30.5,29.48,SE,135,1.0,5.0,91,0.00,,---,0.01,VWS V13.01,2013-02-11 03:01:00,
2013-02-10 22:06:00,32.8,30.5,29.48,SE,130,1.0,5.0,91,0.00,,---,0.01,VWS V13.01,2013-02-11 03:06:00,
2013-02-10 22:11:00,32.8,30.5,29.47,SE,130,1.0,5.0,91,0.00,,---,0.01,VWS V13.01,2013-02-11 03:11:00,
2013-02-10 22:16:00,32.8,30.7,29.47,SSW,202,3.0,7.0,92,0.00,,---,0.01,VWS V13.01,2013-02-11 03:16:00,
2013-02-10 22:21:00,32.8,30.7,29.46,SSE,154,1.0,7.0,92,0.00,,---,0.01,VWS V13.01,2013-02-11 03:21:00,
2013-02-10 22:26:00,32.7,30.6,29.45,SE,143,0.0,7.0,92,0.00,,---,0.01,VWS V13.01,2013-02-11 03:26:00,
2013-02-10 22:31:00,32.6,30.5,29.45,East,95,1.0,7.0,92,0.00,,---,0.01,VWS V13.01,2013-02-11 03:31:00,
2013-02-10 22:36:00,32.6,30.5,29.44,ESE,115,1.0,7.0,92,0.00,,---,0.01,VWS V13.01,2013-02-11 03:36:00,
2013-02-10 22:41:00,32.6,30.5,29.45,SE,128,2.0,7.0,92,0.00,,---,0.01,VWS V13.01,2013-02-11 03:41:00,
2013-02-10 22:46:00,32.6,30.5,29.44,SE,134,1.0,7.0,92,0.00,,---,0.01,VWS V13.01,2013-02-11 03:46:00,
2013-02-10 22:51:00,32.6,30.5,29.44,SE,124,2.0,7.0,92,0.00,,---,0.01,VWS V13.01,2013-02-11 03:51:00,
2013-02-10 22:56:00,32.7,30.6,29.43,SE,130,2.0,7.0,92,0.00,,---,0.01,VWS V13.01,2013-02-11 03:56:00,
2013-02-10 23:01:00,32.7,30.6,29.42,SE,132,0.0,7.0,92,0.00,,---,0.01,VWS V13.01,2013-02-11 04:01:00,
2013-02-10 23:06:00,32.8,30.7,29.42,ESE,119,3.0,7.0,92,0.00,,---,0.01,VWS V13.01,2013-02-11 04:06:00,
2013-02-10 23:11:00,32.8,30.7,29.42,SSE,154,2.0,7.0,92,0.00,,---,0.01,VWS V13.01,2013-02-11 04:11:00,
2013-02-10 23:16:00,32.8,30.7,29.41,East,90,1.0,7.0,92,0.00,,---,0.01,VWS V13.01,2013-02-11 04:16:00,
2013-02-10 23:21:00,32.9,30.8,29.40,SE,146,2.0,9.0,92,0.00,,---,0.01,VWS V13.01,2013-02-11 04:21:00,
2013-02-10 23:26:00,33.0,30.9,29.41,SSE,158,1.0,9.0,92,0.00,,---,0.01,VWS V13.01,2013-02-11 04:26:00,
2013-02-10 23:31:00,33.0,30.9,29.41,SSE,155,1.0,9.0,92,0.00,,---,0.01,VWS V13.01,2013-02-11 04:31:00,
2013-02-10 23:36:00,33.0,30.9,29.40,ESE,108,1.0,9.0,92,0.00,,---,0.01,VWS V13.01,2013-02-11 04:36:00,
2013-02-10 23:41:00,33.1,31.0,29.40,ESE,123,0.0,9.0,92,0.00,,---,0.01,VWS V13.01,2013-02-11 04:41:00,
2013-02-10 23:46:00,33.1,31.0,29.40,South,180,2.0,9.0,92,0.00,,---,0.01,VWS V13.01,2013-02-11 04:46:00,
2013-02-10 23:51:00,33.2,31.1,29.40,South,178,1.0,9.0,92,0.00,,---,0.01,VWS V13.01,2013-02-11 04:51:00,
2013-02-10 23:56:00,33.2,31.1,29.40,SE,131,2.0,9.0,92,0.00,,---,0.01,VWS V13.01,2013-02-11 04:56:00,